• Processing (Info)

  • MPEC 2000-G09 : 2000 FO10

    The following Minor Planet Electronic Circular may be linked-to from your own Web pages, but must not otherwise be redistributed electronically.

    A form allowing access to any MPEC is at the bottom of this page.


    Read MPEC 2000-G08 Read MPEC 2000-G10


    M.P.E.C. 2000-G09                                Issued 2000 Apr. 2, 17:09 UT
    
         The Minor Planet Electronic Circulars contain information on unusual
             minor planets and routine data on comets.  They are published
       on behalf of Commission 20 of the International Astronomical Union by the
              Minor Planet Center, Smithsonian Astrophysical Observatory,
                              Cambridge, MA 02138, U.S.A.
    
                 Prepared using the Tamkin Foundation Computer Network
    
                 BMARSDEN@CFA.HARVARD.EDU or GWILLIAMS@CFA.HARVARD.EDU
              URL http://cfa-www.harvard.edu/iau/mpc.html  ISSN 1523-6714
    
                                       2000 FO10
    
    Observations:
         K00F10O* C2000 03 30.35722 13 25 10.33 -22 18 10.1          17.5        704
         K00F10O  C2000 03 30.37402 13 25 05.89 -22 17 27.7          17.6        704
         K00F10O  C2000 03 30.41123 13 24 56.06 -22 15 55.7          17.4        704
         K00F10O  C2000 03 30.43349 13 24 50.18 -22 15 01.9          17.6        704
         K00F10O  C2000 03 31.39770 13 20 43.22 -21 34 44.1                      670
         K00F10O  C2000 03 31.40159 13 20 42.15 -21 34 34.8                      670
         K00F10O  C2000 03 31.49340 13 20 19.93 -21 30 16.8          16.9 R      428
         K00F10O  C2000 03 31.49721 13 20 18.86 -21 30 07.3          17.0 R      428
         K00F10O  C2000 03 31.93534 13 18 25.37 -21 11 47.1          16.5 R      046
         K00F10O  C2000 03 31.93600 13 18 25.11 -21 11 45.0                      046
         K00F10O  C2000 03 31.93655 13 18 25.04 -21 11 43.3                      046
         K00F10O  C2000 03 31.93709 13 18 24.80 -21 11 42.1                      046
         K00F10O  C2000 03 31.93844 13 18 24.54 -21 11 38.2                      046
         K00F10O  C2000 03 31.93900 13 18 24.35 -21 11 37.8                      046
         K00F10O  C2000 03 31.93961 13 18 24.20 -21 11 35.1                      046
         K00F10O  C2000 04 01.02233 13 18 02.43 -21 08 00.5          16.9 R      620
         K00F10O  C2000 04 01.02708 13 18 01.12 -21 07 47.5          17.0 R      620
         K00F10O  C2000 04 01.05046 13 17 54.93 -21 06 47.0          17.2 R      620
         K00F10O  C2000 04 01.34598 13 16 38.87 -20 53 55.0                      670
         K00F10O  C2000 04 01.39204 13 16 26.53 -20 51 52.8                      670
         K00F10O  C2000 04 01.43588 13 16 14.87 -20 49 58.4                      670
         K00F10O  C2000 04 01.46285 13 16 09.67 -20 48 22.6          17.3 R      428
         K00F10O  C2000 04 01.48414 13 16 04.04 -20 47 27.2          17.4 R      428
         K00F10O  C2000 04 02.02052 13 13 45.34 -20 23 46.9          18.2 V      860
         K00F10O  C2000 04 02.02212 13 13 44.93 -20 23 43.0          18.1 V      860
         K00F10O  C2000 04 02.02529 13 13 44.07 -20 23 34.7          17.9 V      860
         K00F10O  C2000 04 02.02689 13 13 43.64 -20 23 29.6          17.7 V      860
    
    Observer details:
    046 Klet.  Observers J. Ticha, M. Tichy.  0.57-m f/5.2 reflector + CCD.
    428 Reedy Creek.  Observer J. Broughton.  0.25-m f/6.3 Schmidt-Cassegrain
        + CCD.
    620 Observatorio Astronomico de Mallorca.  Observers A. Lopez, R. Pacheco.
        0.30-m f/3.3 Schmidt-Cassegrain + CCD.
    670 Camarillo.  Observer J. E. Rogers.  0.30-m f/6.7 Helin Telescope + CCD.
    704 Lincoln Laboratory ETS, New Mexico.  Observers M. Blythe, F. Shelly,
        M. Bezpalko, M. Elowitz, R. Huber.  Measurers J. Stuart, H. Viggh,
        R. Sayer, J. B. Evans.  1.0-m f/2.15 reflector + CCD.
    860 Valinhos.  Observer P. R. Holvorcem.  0.36-m f/3.6 Schmidt-Cassegrain
        + CCD.
    
    Orbital elements:
    2000 FO10
    Epoch 2000 Mar. 17.0 TT = JDT 2451620.5                 Williams
    M 142.87194              (2000.0)            P               Q
    n   1.23415363     Peri.  172.36851     +0.93134026     -0.34576704
    a   0.8607755      Node   208.69682     +0.32027361     +0.92706181
    e   0.5843294      Incl.   13.76325     +0.17329203     +0.14491916
    P   0.80           H   18.2           G   0.15
    From 27 observations 2000 Mar. 30-Apr. 2.
    
    Ephemeris:
    2000 FO10                a,e,i = 0.86, 0.58, 14                  q = 0.3578
    Date    TT    R. A. (2000) Decl.     Delta      r     Elong.  Phase     V
    2000 03 27    13 39.22   -24 27.2    0.380    1.345   151.7    20.6    17.8
    2000 04 01    13 18.14   -21 08.7    0.368    1.353   161.3    13.7    17.5
    2000 04 06    12 56.61   -17 18.4    0.363    1.359   169.1     8.0    17.2
    2000 04 11    12 35.92   -13 10.6    0.366    1.363   168.3     8.6    17.3
    2000 04 16    12 17.18   -09 03.1    0.377    1.364   160.1    14.5    17.6
    2000 04 21    12 01.05   -05 11.6    0.394    1.363   150.8    21.1    17.9
    2000 04 26    11 47.81   -01 46.3    0.418    1.359   141.7    27.3    18.2
    2000 05 01    11 37.43   +01 08.5    0.446    1.353   133.4    32.7    18.5
    2000 05 06    11 29.72   +03 33.1    0.477    1.345   125.9    37.4    18.7
    2000 05 11    11 24.38   +05 29.8    0.511    1.335   119.0    41.4    19.0
    2000 05 16    11 21.08   +07 02.7    0.545    1.322   112.8    44.8    19.2
    2000 05 21    11 19.49   +08 15.5    0.580    1.307   107.2    47.7    19.4
    2000 05 26    11 19.33   +09 11.7    0.614    1.289   102.0    50.3    19.6
    
    2000 06 05    11 22.42   +10 25.6    0.678    1.246    92.6    54.5    19.8
    2000 06 15    11 28.87   +11 02.5    0.733    1.192    84.3    58.0    20.0
    2000 06 25    11 37.51   +11 15.8    0.775    1.128    76.7    61.3    20.1
    2000 07 05    11 47.43   +11 15.2    0.800    1.052    69.6    64.9    20.1
    2000 07 15    11 57.62   +11 09.6    0.806    0.964    62.6    69.5    20.1
    
    Gareth V. Williams           (C) Copyright 2000 MPC           M.P.E.C. 2000-G09
    

    Read MPEC 2000-G08 Read MPEC 2000-G10


    MPEC number:

    Enter an MPEC number in one of the following forms:

    • 1997-B01 (the full form)
    • J97B01 (the packed version of the full form)
    • B01 (the abbreviated form)